Location: Hopewell Observatory
(38.8698°N, 77.6988°W)
Time: 05:30:54
(UTC-04:00)

Daily predictions for brighter satellites

Satellite Brightness Start Highest point End
(mag) Time Altitude Azimuth Time Altitude Azimuth Time Altitude Azimuth
ATLAS 3B R/B 4.2 00:07:18 10° NW 00:11:07 25° W 00:11:07 25° W
Cosmos 2219 Rocket 3.6 00:14:24 35° NNW 00:14:24 35° NNW 00:18:16 10° N
SL-16 R/B 4.3 00:21:37 18° NE 00:21:37 18° NE 00:23:05 10° NE
Terra 4.5 00:24:36 13° WNW 00:24:36 13° WNW 00:25:35 10° NW
CZ-2C R/B 4.4 00:17:00 10° NNE 00:19:21 27° NNE 00:19:21 27° NNE
NOSS 3-2 (C) 4.4 00:20:21 10° NW 00:26:27 58° WNW 00:26:27 58° WNW
Cosmos 2333 Rocket 3.8 00:32:48 31° NNW 00:32:48 31° NNW 00:36:26 10° N
Cosmos 2237 Rocket 4.0 00:57:08 27° NNW 00:57:08 27° NNW 01:00:21 10° N
Cosmos 2369 Rocket 4.4 00:56:37 10° N 00:59:57 17° NE 00:59:57 17° NE
CENTAUR R/B 3.4 00:58:06 10° NNW 01:04:37 64° NNW 01:04:37 64° NNW
USA 215 4.0 01:13:10 48° N 01:13:10 48° N 01:18:23 10° NW
ATLAS CENTAUR R/B 4.4 01:29:50 10° NW 01:35:02 31° NNW 01:35:02 31° NNW
SL-16 R/B 4.2 02:03:29 22° NNW 02:03:29 22° NNW 02:06:33 10° N
SL-16 R/B 3.9 02:30:31 28° E 02:31:58 31° ENE 02:37:19 10° N
Cosmos 1943 Rocket 3.5 02:27:41 10° NNW 02:31:11 36° N 02:31:11 36° N
Resurs 1-4 Rocket 3.9 02:35:01 10° NE 02:38:22 24° ENE 02:38:22 24° ENE
Cosmos 2369 Rocket 3.8 02:39:17 10° NNW 02:41:41 26° NNW 02:41:41 26° NNW
CZ-3A R/B 3.8 02:37:42 10° NW 02:47:47 61° NE 02:53:04 10° ESE
CZ-2D R/B 3.6 02:45:01 10° NE 02:48:55 30° ENE 02:48:55 30° ENE
Cosmos 1943 4.3 02:56:08 37° NNW 02:56:08 37° NNW 03:00:01 10° NNE
ARIANE 5 R/B 3.5 03:07:42 10° NNE 03:12:11 42° E 03:12:11 42° E
BREEZE-M DEB (TANK) 4.2 03:13:14 45° NW 03:14:25 52° N 03:30:58 10° ENE
Cosmos 2239 Rocket 4.5 03:19:57 76° NNW 03:19:57 76° NNW 03:25:51 10° N
ADEOS Rocket 3.4 03:17:32 10° N 03:21:45 46° NNW 03:21:45 46° NNW
Cosmos 1535 Rocket 4.4 03:28:55 76° WNW 03:28:55 76° WNW 03:35:10 10° N
IRS-1D 3.6 03:31:53 10° NNE 03:36:35 74° NNE 03:36:35 74° NNE
Cosmos 2221 3.5 03:41:00 45° NNE 03:41:00 45° NNE 03:44:03 10° N
Cosmos 1805 Rocket 4.3 03:38:14 10° N 03:42:20 50° ENE 03:42:20 50° ENE
ADEOS 3.5 03:39:58 10° NNE 03:45:13 77° ESE 03:45:16 77° ESE
Spot 4 Rocket 4.1 03:40:24 10° N 03:45:08 71° NNW 03:45:08 71° NNW
COSMOS 2406 3.1 03:47:05 76° SSE 03:47:23 79° ESE 03:53:05 10° NNE
Cosmos 2285 Rocket 4.1 03:46:52 54° SSE 03:48:10 69° ESE 03:54:32 10° NNE
Cosmos 372 Rocket 3.9 03:46:03 10° NNW 03:51:00 82° NNW 03:51:00 82° NNW
Cosmos 2098 Rocket 4.0 03:52:13 56° WNW 03:52:13 56° WNW 03:57:06 10° N
CBERS 1 LM4 rocket 4.5 03:49:31 10° N 03:54:37 72° WNW 03:54:37 72° WNW
Cosmos 540 Rocket 4.0 03:58:15 46° NW 03:58:15 46° NW 04:02:44 10° N
Okean O Rocket 4.4 03:57:40 10° ENE 03:59:24 12° E 04:01:07 10° ESE
Cosmos 783 Rocket 4.3 04:05:05 72° WSW 04:05:26 75° WNW 04:10:43 10° NNE
MOS 1 Rocket 3.6 04:03:44 10° N 04:07:19 49° NW 04:07:19 49° NW
Cosmos 1300 3.1 04:12:33 57° E 04:12:37 57° E 04:16:24 10° NNE
SL-16 R/B 3.0 04:15:37 40° W 04:15:37 40° W 04:21:13 10° NNW
Cosmos 1125 Rocket 4.2 04:10:30 10° NNW 04:14:14 38° WNW 04:14:14 38° WNW
Cosmos 1943 Rocket 4.4 04:12:30 10° NW 04:12:38 11° WNW 04:12:38 11° WNW
BREEZE M DEB (TANK) 4.4 04:17:34 20° ENE 04:17:34 20° ENE 04:18:45 10° E
Sich 1 3.0 04:12:35 10° N 04:16:59 81° E 04:17:46 59° SSE
Resurs 1-4 Rocket 2.8 04:14:27 10° N 04:19:15 36° WNW 04:19:26 36° WNW
Cosmos 2123 Rocket 4.3 04:14:18 10° NNW 04:20:12 45° W 04:20:53 43° WSW
CZ-2D R/B 3.2 04:17:21 10° N 04:21:16 75° WNW 04:21:16 75° WNW
Cosmos 1656 Rocket 4.1 04:19:14 10° NW 04:24:03 41° W 04:24:03 41° W
Cosmos 1315 Rocket 2.6 04:24:10 10° N 04:28:12 81° W 04:28:33 72° SSW
CZ-2D R/B 3.0 04:25:06 10° N 04:29:44 31° WNW 04:30:15 30° WNW
Cosmos 1459 Rocket 4.1 04:25:34 20° S 04:29:52 72° E 04:35:55 10° N
Cosmos 1538 Rocket 4.0 04:30:39 37° SSW 04:32:53 85° ESE 04:38:18 10° NNE
Cosmos 1470 Rocket 4.5 04:28:48 10° N 04:32:58 47° E 04:37:08 10° SSE
Cosmos 2228 Rocket 3.4 04:31:12 29° SSE 04:33:23 65° E 04:37:48 10° NNE
USA 229 DEB 3.8 04:30:49 10° NW 04:37:51 59° WSW 04:45:01 10° SSE
USA 229 3.8 04:30:55 10° NW 04:37:58 59° WSW 04:45:07 10° SSE
Cosmos 2082 Rocket 3.6 04:34:48 10° SSE 04:39:45 33° ESE 04:44:44 10° NE
Cosmos 1515 Rocket 3.9 04:37:53 23° S 04:40:29 64° E 04:44:52 10° NNE
PSLV R/B 3.6 04:42:54 48° NW 04:43:26 57° N 04:46:39 10° E
Cosmos 1633 Rocket 3.0 04:41:04 10° NNW 04:45:22 58° W 04:46:50 37° SSW
USA 161 3.6 04:47:07 13° N 04:47:07 13° N 04:47:25 10° N
Tiangong 2 2.5 04:46:42 27° SSE 04:46:52 27° SSE 04:49:40 10° E
Cosmos 292 Rocket 4.3 04:46:24 35° W 04:47:30 40° WNW 04:52:03 10° N
PSLV R/B 4.5 04:44:02 10° NNE 04:48:08 57° E 04:51:13 17° S
Cosmos 2061 Rocket 4.0 04:43:46 15° S 04:49:13 89° WNW 04:55:40 10° N
Lacrosse 5 3.7 04:46:50 10° NNW 04:51:25 33° NE 04:55:58 10° E
ARIANE 5 R/B 3.9 04:47:31 10° NNW 04:51:29 22° WNW 04:52:31 21° W
CZ-4B R/B 3.5 04:52:44 10° NNE 04:57:12 65° ESE 05:01:30 11° S
CZ-4B R/B 4.1 04:53:06 10° NNE 04:58:22 47° E 05:03:30 10° S
UNKNOWN OBJECT B 4.2 04:56:22 10° NNW 04:59:36 23° WNW 05:00:00 23° W
Cosmos 1680 Rocket 4.3 04:55:48 10° S 05:00:53 50° ESE 05:06:00 10° NNE
Cosmos 1726 3.7 05:03:54 20° WNW 05:03:54 20° WNW 05:06:30 10° NNW
Cosmos 1328 Rocket 3.9 05:05:17 27° SW 05:07:05 42° W 05:11:13 10° N
Cosmos 2369 4.0 05:02:25 10° NNW 05:08:05 70° ENE 05:13:42 10° SSE
SL-27 R/B 4.0 05:08:12 19° WNW 05:08:24 20° WNW 05:10:58 10° NNW
Cosmos 2016 Rocket 3.9 05:03:09 10° S 05:09:17 79° W 05:15:24 10° N
ADEOS II 2.0 05:04:52 10° N 05:10:07 72° WNW 05:14:51 13° SSW
Meteor 1-27 4.2 05:04:57 10° S 05:10:38 90° W 05:16:17 10° N
Cosmos 1892 2.8 05:07:25 10° N 05:11:15 79° E 05:15:06 10° S
USA 234 4.2 05:05:19 10° ENE 05:11:27 42° SE 05:17:33 10° SSW
NOSS 3-1 (C) 4.0 05:05:07 10° NW 05:12:50 72° WSW 05:21:15 10° SSE
MOS 1-B 4.5 05:07:54 10° N 05:13:38 60° WNW 05:18:38 14° SSW
Hubble Space Telescope 2.5 05:12:56 16° SSW 05:14:12 18° S 05:17:03 10° SE
Shenzhou-11 Module 2.1 05:14:51 31° SW 05:16:09 68° SSE 05:19:13 10° ENE
In-Cosmos 22 Rocket 4.3 05:12:26 10° NNW 05:17:36 48° W 05:22:40 10° SSW
PSLV R/B 3.5 05:13:42 10° N 05:18:03 80° WNW 05:22:21 10° SSW
BREEZE-M DEB (TANK) 2.9 05:20:14 22° SW 05:20:14 22° SW 05:22:53 10° SSE
Cosmos 1725 Rocket 4.0 05:15:44 10° S 05:21:55 89° WNW 05:28:07 10° N
Cosmos 1656 4.0 05:17:01 10° NNW 05:22:44 71° ENE 05:28:24 10° SSE
Cosmos 1802 Rocket 4.2 05:17:48 12° SSW 05:23:24 50° W 05:29:30 10° N
Cosmos 1825 4.5 05:23:13 10° NNE 05:26:33 28° ENE 05:29:51 10° SE
Cosmos 1933 Rocket 3.9 05:22:53 10° NNW 05:27:10 46° W 05:31:24 10° SSW
COSMOS 2487 2.4 05:28:40 12° SSW 05:31:54 69° WNW 05:35:26 10° NNE
Abrixas 2.0 05:29:55 10° WNW 05:32:33 85° SW 05:35:10 10° SE
Okean O Rocket 1.8 05:31:45 10° N 05:36:06 56° WNW 05:40:23 10° SSW
Cosmos 1833 Rocket 2.7 05:33:04 10° SSW 05:38:43 78° WNW 05:44:23 10° NNE
Cosmos 1151 Rocket 3.9 05:38:20 11° SW 05:41:58 31° WNW 05:45:47 10° NNW
Cosmos 1408 3.7 05:39:29 10° N 05:43:00 47° E 05:46:28 10° SSE
Tsikada Rocket 4.0 05:38:12 10° NNW 05:44:29 72° W 05:50:49 10° S
Cosmos 1707 Rocket 4.0 05:40:24 10° S 05:44:47 66° E 05:49:09 10° NNE
Cosmos 1980 Rocket 3.2 05:48:48 10° NNW 05:54:17 52° ENE 05:59:44 10° SE
Cosmos 2278 4.0 05:52:26 10° NW 05:57:47 45° WSW 06:03:07 10° S
ASTEX 1 4.4 05:56:17 10° NNE 06:01:05 52° E 06:05:49 10° S
EO 1 Del DPAF 3.3 05:57:28 10° SSE 06:01:18 88° WSW 06:05:10 10° NNW
Cosmos 482 Debris 4.1 05:59:58 10° WNW 06:02:46 57° SW 06:07:25 10° SE
Cosmos 1455 3.3 06:01:50 10° SW 06:04:57 24° WNW 06:08:05 10° NNW
